Temp
-7 -6 -5 -5 -4 -4 -4 -4 -4 -3 -3 -3 -2 -2 -2 -2 -2 -2 -1 -1 -2 -2 -2 -2 -2 -2 -2 -1 -2 -1 -1 -1 -1 -1 -1 -1 -1 -2 -1 -1 -1 -1 -1 -0 -0 -0 -1 -1 -1 -2 -2 -2 -3 -2 -2 -2 -1 -1 -1 -1 -1 -1 -1
-7 -6 -6 -5 -5 -4 -4 -4 -4 -4 -3 -3 -2 -2 -2 -2 -2 -2 -2 -2 -2 -2 -2 -2 -2 -2 -2 -2 -2 -2 -2 -1 -1 -2 -2 -2 -2 -2 -2 -2 -1 -1 -1 -1 -1 -1 -1 -1 -2 -2 -2 -2 -3 -3 -2 -2 -2 -2 -1 -1 -1 -1 -1
-7 -7 -6 -6 -5 -5 -4 -4 -4 -4 -3 -3 -2 -2 -2 -2 -2 -2 -2 -2 -2 -2 -2 -2 -2 -2 -2 -2 -2 -2 -2 -2 -2 -2 -2 -2 -2 -2 -2 -2 -2 -2 -1 -2 -2 -2 -2 -2 -2 -2 -2 -3 -3 -3 -3 -3 -3 -2 -2 -2 -2 -1 -1
-7 -7 -7 -6 -6 -5 -5 -5 -4 -4 -4 -3 -3 -3 -3 -2 -2 -2 -2 -2 -2 -2 -2 -2 -2 -2 -2 -2 -2 -2 -2 -2 -2 -2 -2 -2 -2 -2 -2 -2 -2 -2 -1 -1 -2 -3 -3 -2 -3 -3 -3 -3 -3 -3 -3 -3 -3 -3 -3 -2 -2 -2 -2
-8 -7 -7 -7 -7 -7 -6 -6 -5 -4 -4 -4 -3 -3 -3 -3 -2 -2 -2 -2 -2 -2 -2 -2 -2 -1 -1 -2 -2 -2 -2 -2 -2 -2 -2 -2 -2 -2 -2 -2 -2 -2 -2 -2 -3 -4 -4 -3 -3 -3 -4 -4 -4 -4 -4 -4 -4 -4 -3 -3 -3 -3 -3
-9 -9 -9 -9 -8 -8 -7 -7 -6 -5 -5 -4 -4 -3 -3 -3 -3 -2 -2 -2 -2 -2 -2 -3 -2 -1 -1 -2 -2 -2 -2 -2 -2 -2 -2 -2 -2 -2 -2 -2 -2 -2 -2 -2 -3 -4 -4 -4 -4 -4 -4 -4 -4 -4 -4 -4 -5 -4 -4 -4 -4 -3 -3
-10 -10 -10 -9 -9 -9 -8 -8 -7 -6 -6 -5 -4 -4 -3 -3 -3 -3 -3 -2 -2 -2 -2 -2 -2 -2 -2 -1 -2 -2 -2 -2 -2 -2 -2 -2 -2 -2 -3 -3 -3 -3 -3 -3 -4 -4 -4 -4 -4 -4 -5 -4 -4 -4 -4 -5 -5 -5 -5 -5 -4 -4 -4
-12 -11 -11 -10 -10 -9 -8 -8 -7 -7 -6 -5 -5 -4 -4 -3 -3 -3 -3 -2 -2 -2 -2 -2 -2 -2 -2 -2 -1 -2 -2 -2 -2 -2 -3 -2 -3 -3 -3 -3 -3 -3 -3 -3 -4 -5 -5 -5 -5 -5 -5 -5 -5 -5 -5 -5 -5 -6 -6 -6 -5 -5 -4
-12 -12 -11 -11 -10 -9 -9 -8 -8 -7 -6 -6 -5 -5 -4 -4 -3 -3 -3 -3 -2 -2 -2 -2 -2 -2 -2 -2 -2 -1 -2 -2 -2 -2 -3 -3 -3 -3 -3 -3 -3 -3 -3 -4 -4 -5 -5 -5 -5 -5 -5 -6 -6 -5 -5 -5 -5 -6 -6 -6 -6 -6 -5
-12 -12 -12 -11 -10 -10 -9 -9 -8 -6 -6 -5 -5 -5 -4 -4 -3 -3 -3 -3 -3 -3 -2 -2 -2 -2 -2 -2 -2 -2 -2 -2 -2 -2 -2 -3 -3 -3 -3 -3 -3 -4 -4 -3 -4 -5 -5 -6 -5 -5 -5 -6 -6 -5 -5 -5 -6 -6 -6 -6 -7 -6 -6
-13 -12 -12 -11 -11 -10 -9 -9 -7 -6 -5 -5 -5 -4 -4 -4 -3 -3 -3 -3 -3 -3 -3 -2 -2 -2 -2 -2 -2 -2 -2 -2 -2 -3 -3 -3 -3 -3 -3 -3 -3 -4 -4 -4 -4 -4 -5 -6 -6 -5 -5 -5 -5 -5 -5 -5 -6 -6 -6 -7 -7 -6 -6
-13 -12 -12 -11 -10 -10 -10 -9 -7 -6 -6 -5 -5 -4 -4 -3 -3 -3 -3 -3 -3 -3 -3 -3 -3 -3 -3 -3 -2 -2 -2 -2 -2 -2 -3 -3 -3 -3 -3 -3 -3 -3 -4 -4 -4 -4 -4 -5 -5 -5 -5 -5 -5 -5 -5 -5 -6 -6 -6 -6 -7 -6 -6
-13 -12 -12 -11 -10 -10 -9 -8 -7 -6 -6 -5 -4 -4 -3 -3 -3 -3 -3 -3 -3 -3 -3 -3 -3 -3 -3 -3 -3 -3 -3 -2 -2 -2 -3 -3 -3 -3 -3 -3 -3 -3 -3 -3 -3 -4 -4 -4 -5 -5 -5 -5 -5 -5 -6 -6 -6 -6 -6 -6 -6 -6 -6
-13 -12 -12 -11 -10 -9 -9 -8 -7 -6 -5 -5 -4 -3 -3 -3 -3 -3 -3 -3 -3 -3 -3 -3 -3 -3 -3 -3 -3 -3 -3 -3 -3 -3 -3 -3 -4 -4 -4 -4 -3 -3 -3 -3 -3 -3 -3 -4 -4 -5 -5 -5 -5 -5 -5 -6 -6 -6 -6 -6 -6 -6 -6
-13 -12 -11 -11 -10 -9 -8 -7 -6 -5 -5 -4 -4 -3 -3 -3 -3 -3 -3 -3 -3 -3 -3 -3 -3 -3 -3 -3 -3 -3 -3 -3 -3 -3 -3 -3 -4 -4 -4 -4 -4 -4 -4 -3 -3 -3 -3 -3 -4 -4 -4 -5 -5 -5 -5 -5 -5 -6 -6 -6 -7 -7 -7
-12 -12 -11 -10 -10 -9 -8 -7 -5 -4 -4 -3 -3 -3 -3 -3 -3 -3 -3 -3 -3 -3 -3 -3 -3 -3 -3 -3 -3 -3 -3 -3 -2 -3 -3 -3 -4 -4 -4 -4 -4 -3 -3 -4 -4 -4 -4 -4 -4 -4 -4 -4 -5 -5 -5 -5 -6 -6 -6 -7 -8 -8 -8
-12 -11 -11 -10 -9 -8 -7 -6 -5 -4 -4 -3 -3 -3 -3 -3 -3 -3 -3 -3 -3 -3 -3 -3 -3 -3 -3 -3 -3 -3 -3 -3 -3 -3 -3 -4 -4 -4 -4 -4 -4 -3 -3 -3 -4 -4 -4 -4 -4 -4 -4 -4 -5 -5 -5 -6 -7 -7 -7 -8 -8 -9 -9
-12 -11 -10 -9 -8 -7 -7 -6 -5 -4 -4 -4 -3 -3 -3 -3 -3 -3 -3 -3 -3 -3 -3 -3 -3 -3 -3 -3 -3 -3 -3 -3 -3 -3 -4 -4 -4 -4 -4 -4 -4 -4 -4 -4 -4 -4 -4 -4 -4 -4 -4 -5 -5 -5 -5 -6 -6 -7 -7 -8 -8 -9 -10
-11 -10 -8 -7 -6 -6 -6 -5 -4 -4 -4 -3 -3 -3 -3 -3 -3 -3 -3 -3 -3 -3 -3 -3 -3 -3 -3 -3 -3 -3 -3 -3 -3 -3 -4 -4 -4 -4 -4 -4 -4 -4 -5 -5 -5 -5 -5 -5 -5 -5 -5 -5 -5 -5 -5 -5 -6 -6 -7 -8 -8 -9 -10
-10 -8 -7 -6 -6 -6 -6 -5 -5 -4 -4 -4 -4 -4 -4 -4 -4 -4 -3 -3 -3 -3 -3 -3 -3 -3 -3 -3 -3 -3 -3 -3 -3 -3 -3 -4 -4 -4 -4 -4 -4 -4 -5 -5 -5 -5 -5 -6 -6 -6 -6 -6 -6 -6 -6 -6 -6 -6 -7 -7 -8 -9 -9
-9 -7 -6 -6 -6 -6 -6 -5 -5 -4 -4 -4 -4 -4 -4 -4 -4 -4 -4 -4 -4 -4 -3 -3 -3 -3 -3 -3 -3 -3 -3 -3 -3 -3 -3 -4 -4 -4 -4 -4 -4 -5 -5 -5 -5 -5 -6 -6 -6 -6 -6 -6 -7 -7 -7 -7 -7 -7 -7 -7 -8 -8 -9
-8 -7 -7 -6 -6 -6 -6 -5 -5 -4 -4 -4 -4 -4 -5 -5 -5 -5 -5 -5 -5 -4 -4 -4 -4 -3 -3 -3 -3 -3 -3 -3 -3 -3 -3 -3 -3 -3 -4 -4 -4 -5 -5 -6 -6 -6 -7 -7 -7 -7 -7 -7 -8 -8 -8 -8 -7 -7 -7 -7 -7 -8 -8
-9 -8 -7 -6 -6 -6 -6 -6 -6 -5 -5 -5 -5 -5 -5 -5 -5 -5 -5 -5 -5 -5 -5 -4 -4 -4 -4 -3 -3 -3 -3 -3 -3 -3 -3 -3 -3 -4 -4 -4 -5 -5 -6 -6 -7 -7 -8 -8 -8 -8 -8 -8 -8 -8 -8 -8 -8 -8 -8 -8 -8 -8 -8
-9 -8 -7 -6 -6 -6 -6 -6 -6 -6 -6 -6 -5 -5 -5 -5 -5 -5 -5 -5 -5 -5 -5 -5 -5 -4 -4 -4 -4 -4 -3 -3 -3 -3 -3 -3 -4 -4 -5 -5 -6 -6 -7 -7 -8 -8 -9 -9 -9 -9 -9 -9 -9 -9 -9 -9 -9 -9 -9 -9 -9 -9 -9
-9 -8 -7 -6 -6 -6 -6 -6 -7 -7 -7 -6 -5 -6 -6 -6 -5 -5 -5 -5 -5 -5 -5 -5 -5 -5 -5 -5 -5 -4 -4 -4 -4 -4 -4 -4 -5 -6 -6 -6 -7 -7 -8 -8 -9 -9 -10 -10 -10 -10 -10 -9 -9 -9 -9 -9 -9 -10 -10 -10 -10 -10 -10
-9 -8 -7 -7 -6 -6 -7 -7 -7 -7 -7 -6 -6 -6 -5 -5 -5 -5 -5 -5 -5 -6 -6 -6 -6 -6 -6 -5 -5 -5 -5 -5 -5 -5 -5 -5 -6 -6 -6 -7 -7 -8 -9 -9 -10 -10 -11 -11 -11 -10 -10 -10 -10 -10 -10 -10 -10 -10 -10 -10 -10 -11 -11
-9 -8 -7 -6 -6 -6 -6 -7 -7 -7 -7 -6 -6 -6 -5 -5 -5 -5 -5 -6 -6 -7 -7 -7 -6 -6 -6 -6 -5 -5 -5 -5 -5 -6 -6 -7 -7 -7 -7 -7 -8 -8 -9 -10 -11 -11 -12 -12 -11 -11 -11 -11 -10 -10 -10 -10 -10 -10 -11 -11 -11 -12 -12
-8 -7 -6 -6 -6 -6 -6 -7 -7 -6 -6 -6 -6 -6 -5 -5 -5 -6 -6 -6 -7 -7 -7 -7 -6 -6 -6 -6 -6 -6 -7 -7 -7 -7 -8 -8 -8 -8 -8 -8 -9 -9 -10 -10 -11 -12 -12 -12 -11 -11 -11 -11 -10 -10 -10 -10 -10 -10 -11 -11 -12 -13 -14
-7 -7 -6 -6 -6 -6 -6 -7 -6 -6 -6 -6 -6 -6 -6 -6 -6 -6 -7 -7 -7 -7 -7 -7 -7 -7 -7 -8 -8 -8 -8 -9 -9 -9 -9 -9 -9 -9 -9 -9 -10 -10 -11 -11 -11 -12 -12 -12 -12 -12 -11 -11 -11 -11 -11 -11 -11 -11 -11 -12 -12 -13 -14
-7 -6 -6 -6 -6 -6 -6 -6 -6 -6 -6 -6 -6 -6 -6 -6 -6 -7 -7 -7 -7 -7 -7 -8 -8 -9 -9 -9 -9 -10 -10 -10 -10 -10 -10 -10 -10 -10 -10 -10 -10 -11 -11 -12 -12 -12 -12 -12 -12 -12 -12 -12 -12 -12 -12 -12 -12 -12 -12 -12 -13 -14 -14
-7 -7 -6 -6 -6 -5 -6 -6 -6 -6 -6 -6 -6 -6 -6 -6 -7 -7 -7 -7 -7 -8 -9 -9 -10 -10 -10 -10 -10 -11 -11 -11 -11 -11 -11 -11 -11 -11 -11 -11 -12 -12 -12 -12 -12 -13 -12 -12 -12 -12 -12 -12 -12 -12 -13 -13 -13 -13 -13 -13 -13 -13 -14
-7 -7 -7 -6 -6 -5 -5 -6 -6 -6 -6 -5 -6 -6 -6 -6 -6 -7 -7 -7 -7 -9 -10 -10 -10 -11 -11 -11 -11 -11 -11 -11 -11 -11 -11 -11 -12 -12 -12 -11 -12 -12 -12 -12 -12 -13 -13 -12 -12 -12 -12 -12 -12 -13 -13 -14 -14 -14 -13 -13 -13 -13 -13
-7 -7 -7 -7 -6 -6 -5 -5 -6 -5 -5 -5 -6 -6 -6 -6 -7 -7 -8 -7 -8 -9 -10 -10 -11 -11 -11 -11 -12 -12 -12 -12 -12 -12 -12 -12 -12 -13 -13 -12 -12 -12 -12 -12 -12 -12 -12 -12 -12 -11 -12 -12 -13 -13 -13 -14 -14 -14 -14 -14 -14 -14 -14
-7 -7 -7 -7 -7 -6 -5 -5 -5 -5 -5 -5 -6 -6 -6 -7 -8 -8 -8 -8 -8 -10 -11 -11 -11 -11 -11 -12 -12 -12 -12 -12 -12 -12 -12 -12 -12 -12 -12 -12 -12 -12 -12 -12 -12 -12 -12 -12 -12 -12 -12 -13 -14 -14 -14 -14 -14 -14 -14 -14 -14 -14 -14
-8 -8 -8 -8 -7 -7 -6 -5 -4 -5 -5 -5 -6 -7 -7 -7 -8 -9 -9 -9 -9 -10 -11 -11 -11 -12 -12 -12 -12 -12 -12 -12 -12 -12 -12 -12 -12 -12 -13 -13 -13 -12 -12 -12 -12 -12 -12 -12 -12 -12 -12 -13 -13 -14 -14 -14 -14 -14 -13 -13 -13 -13 -14
-9 -8 -8 -8 -7 -7 -6 -5 -5 -5 -6 -6 -7 -7 -7 -8 -9 -10 -10 -10 -11 -11 -11 -11 -12 -12 -12 -12 -12 -12 -12 -12 -12 -11 -11 -11 -12 -12 -13 -13 -13 -13 -13 -13 -12 -12 -12 -12 -12 -13 -13 -13 -13 -13 -13 -13 -13 -13 -13 -13 -13 -14 -14
Height
709 707 705 703 702 701 701 700 700 700 701 702 702 702 703 704 704 704 704 705 706 707 709 709 710 710 710 712 713 714 714 714 716 717 718 720 722 725 728 731 734 735 735 738 740 742 744 746 748 750 752 756 758 758 760 762 765 768 771 772 773 776 778
707 705 702 700 698 698 697 697 696 697 697 698 698 699 700 701 701 701 701 702 703 704 705 706 707 707 707 709 710 711 711 711 712 714 715 717 719 721 724 727 730 731 733 735 738 739 741 743 745 748 750 752 754 755 757 760 762 765 768 769 770 772 774
705 702 700 697 696 695 694 694 693 694 694 695 695 696 697 697 698 698 699 699 700 700 702 703 703 704 705 705 706 707 708 708 709 710 712 714 716 718 720 723 726 728 729 732 734 736 738 740 742 745 747 750 751 753 756 757 759 761 764 766 768 769 771
702 700 698 695 694 693 692 691 691 691 691 692 692 693 694 695 695 696 696 696 697 697 698 699 699 700 702 703 703 704 705 706 707 708 709 711 713 715 717 720 722 724 726 729 731 733 735 737 739 742 745 748 750 752 754 756 757 759 761 763 765 767 769
700 698 695 693 692 691 690 689 689 689 688 689 690 690 691 692 692 693 693 693 694 694 695 695 696 697 698 700 701 701 703 704 705 705 706 708 710 712 714 717 719 721 723 726 728 730 732 735 737 740 743 746 748 750 753 755 756 757 758 761 763 765 767
697 695 693 692 691 690 688 687 687 687 686 687 687 688 688 689 689 690 690 690 691 691 691 692 693 694 695 696 698 699 700 701 702 703 704 706 707 709 712 714 717 718 721 722 724 727 730 733 735 738 741 744 746 747 749 753 755 756 756 758 760 762 764
695 693 692 690 688 687 686 685 685 684 684 684 685 685 686 686 686 687 687 687 688 688 689 689 691 692 692 693 694 695 697 699 700 701 702 704 705 707 709 712 714 716 718 720 722 724 727 730 733 736 738 741 744 746 747 749 751 752 753 755 756 758 761
693 691 689 687 686 684 683 682 681 681 681 681 682 682 683 683 683 683 684 684 685 685 686 686 687 689 690 690 691 692 694 696 697 699 700 702 703 705 707 709 711 713 715 717 719 722 724 727 730 734 736 739 742 743 744 745 747 748 750 752 754 756 758
690 688 685 684 682 681 680 679 678 677 677 678 678 678 679 679 679 680 680 681 681 682 683 683 684 686 687 688 689 690 691 693 694 696 698 699 701 703 705 707 708 710 712 715 717 719 722 725 728 730 733 735 737 737 739 742 745 747 748 750 753 755 757
686 684 682 680 678 677 676 674 674 673 674 674 675 675 675 675 676 676 677 678 678 679 679 680 681 682 684 686 687 688 689 690 692 694 695 697 698 700 702 704 706 708 710 712 714 717 720 722 724 726 727 729 731 734 737 740 742 744 747 750 752 753 755
682 680 678 677 675 673 672 670 669 669 670 670 671 671 671 671 672 672 673 674 675 676 676 677 678 680 681 682 684 685 686 688 689 691 693 695 696 697 699 701 703 705 707 710 712 714 716 718 720 721 723 725 728 732 734 736 738 741 744 747 748 750 751
678 676 674 673 672 670 668 666 665 665 666 666 666 667 667 667 667 668 669 670 671 672 673 674 675 677 678 679 681 682 684 685 687 689 691 693 695 696 697 699 700 702 704 707 709 711 713 714 716 718 720 722 725 728 731 734 737 738 740 742 744 745 747
675 672 670 669 667 665 664 662 661 662 662 662 662 662 662 663 663 664 665 666 667 668 669 671 672 674 675 676 678 679 681 683 685 686 689 691 693 694 695 697 698 700 702 703 706 708 709 710 712 714 716 718 721 725 729 732 734 736 738 739 741 743 746
672 669 667 665 664 662 660 658 657 657 657 658 657 657 658 659 659 660 661 662 663 665 666 668 669 671 672 673 675 677 679 681 683 684 686 688 690 691 693 694 696 698 700 701 703 704 705 706 709 711 712 716 719 722 724 727 730 732 735 738 741 743 746
668 666 664 662 661 659 656 654 653 653 653 653 653 653 654 655 656 656 657 658 659 661 663 664 666 668 669 670 672 674 676 678 680 682 683 685 686 688 690 691 693 695 697 699 700 701 703 705 707 708 710 713 716 719 721 724 727 730 733 737 740 743 745
666 663 661 659 657 656 654 652 650 650 650 650 650 651 652 652 653 653 654 654 656 657 659 661 663 664 666 667 668 670 672 674 676 678 680 681 683 685 687 688 690 692 695 696 698 699 701 704 706 707 709 711 714 717 721 724 728 730 733 736 739 742 744
663 660 658 656 654 653 651 649 648 648 648 648 648 648 649 650 650 651 651 652 653 654 655 657 658 660 662 663 665 667 669 671 673 675 676 678 680 682 684 686 688 690 692 694 696 697 700 702 704 705 707 709 712 715 718 722 725 728 730 734 737 740 741
660 658 656 654 652 651 649 647 646 646 646 646 646 646 647 648 648 648 649 649 650 651 652 653 654 656 658 659 661 663 666 668 670 672 673 675 677 679 681 682 685 687 690 692 694 696 698 700 702 704 706 708 710 713 715 718 721 724 727 731 733 736 739
659 656 654 653 651 649 648 646 645 644 644 644 644 644 645 645 646 646 646 647 647 648 648 649 650 652 654 655 657 659 661 663 666 667 669 671 673 675 676 678 681 684 686 689 692 694 696 698 700 702 705 707 709 711 713 715 718 720 724 727 730 732 736
659 656 654 653 652 649 647 646 644 643 643 643 643 643 643 644 644 644 644 644 645 645 645 646 647 648 650 651 653 655 657 658 660 662 664 667 668 669 671 674 677 680 682 685 688 690 693 696 698 700 703 706 708 710 712 714 716 718 720 723 727 729 732
658 656 653 652 651 648 646 644 643 642 642 642 642 642 642 642 642 642 642 642 642 642 642 643 644 645 646 648 649 651 652 654 656 658 660 661 662 664 668 671 673 676 680 682 684 687 690 693 696 698 700 703 706 708 711 713 715 717 719 721 724 727 729
658 655 653 651 650 648 646 644 643 642 641 641 641 641 641 640 640 639 640 640 639 639 640 640 641 642 643 645 646 647 648 649 651 653 655 656 658 661 664 667 670 673 676 679 681 684 687 690 693 695 697 700 703 706 709 712 714 716 718 720 722 725 727
659 656 653 651 649 648 646 644 643 641 641 640 640 639 639 638 637 637 637 637 637 637 637 638 638 639 640 641 642 643 644 645 647 649 651 652 655 658 661 664 667 670 673 676 679 681 685 688 690 693 695 697 700 704 708 710 713 715 717 720 722 725 727
659 657 653 650 648 647 645 644 642 641 640 640 638 638 637 636 635 635 635 635 634 634 635 635 635 636 637 638 639 640 641 642 643 645 647 649 652 655 657 660 664 667 671 674 677 680 683 686 689 691 694 696 699 703 707 710 712 715 717 719 722 725 727
659 656 653 650 647 645 644 643 641 640 639 638 637 636 635 634 634 633 633 633 633 633 633 633 634 635 635 636 637 638 639 640 642 643 646 648 651 653 655 659 662 666 670 674 677 680 683 686 689 691 694 697 699 702 706 709 712 715 717 719 722 724 727
658 655 652 649 646 644 642 641 640 638 637 636 636 634 633 632 632 632 632 632 632 632 633 633 634 634 635 636 637 638 639 640 642 644 646 648 650 652 655 658 662 665 669 673 676 680 682 686 689 692 695 698 700 703 706 709 712 714 717 719 721 724 726
657 653 650 647 645 643 640 639 638 637 636 635 635 633 632 632 632 632 632 632 632 633 633 634 635 635 635 636 637 639 640 642 643 645 646 648 651 653 655 658 662 665 668 672 675 679 682 685 689 692 695 698 701 703 707 709 712 714 716 719 721 723 726
656 652 649 647 644 641 640 638 637 636 636 635 634 634 633 632 632 632 632 632 633 634 635 635 636 636 636 637 638 640 641 643 645 646 648 650 653 655 657 660 663 666 669 672 675 678 682 686 689 692 695 698 701 704 707 709 711 713 715 718 720 723 725
655 652 649 647 643 640 639 638 637 636 635 635 634 633 633 633 633 633 633 634 634 635 636 637 637 638 639 640 641 642 643 645 647 649 651 653 655 657 660 663 665 668 670 673 675 678 682 685 689 692 695 698 701 704 706 709 711 712 715 717 720 722 724
655 652 649 646 643 640 639 637 636 636 635 634 634 634 634 635 634 634 634 635 636 637 637 638 639 641 641 642 644 645 646 648 650 652 654 657 658 660 662 665 667 669 671 674 677 679 682 685 688 692 695 698 701 704 706 709 711 712 714 717 719 722 724
655 652 649 646 642 639 638 637 636 636 635 634 634 635 635 636 636 636 637 637 637 638 640 641 642 643 645 646 647 648 649 651 652 654 656 659 661 663 665 667 669 672 673 675 678 681 683 686 689 692 695 698 701 704 706 708 711 713 715 717 719 720 722
654 651 648 646 643 640 638 637 637 636 635 635 636 636 637 638 638 639 639 639 639 641 642 644 645 646 647 648 650 651 652 653 655 656 658 660 662 665 667 669 671 673 675 677 679 682 685 687 690 692 696 698 701 703 706 708 711 713 715 717 718 720 721
654 651 649 646 643 640 639 638 637 637 636 637 637 638 639 640 640 641 641 641 641 643 645 646 647 649 650 651 652 653 654 656 657 659 660 662 664 666 668 670 672 675 677 679 681 683 685 688 690 693 696 699 701 703 706 708 711 713 715 716 718 719 721
654 652 649 647 644 642 640 639 638 638 638 639 640 640 641 641 642 642 643 643 644 645 646 648 649 651 652 653 654 655 656 658 659 661 662 664 665 667 670 672 674 676 678 680 682 684 686 688 691 693 695 698 701 704 706 708 711 713 714 716 717 718 720
655 653 651 649 646 644 642 640 640 640 641 641 642 643 643 643 643 644 645 646 646 647 648 649 651 652 654 655 656 657 658 659 661 662 664 665 667 669 671 673 675 677 679 681 683 685 687 689 691 693 696 698 701 703 706 708 710 712 713 715 716 718 720
659 656 653 651 649 646 645 643 643 643 644 645 645 645 645 645 646 647 648 648 649 650 651 652 653 654 655 657 658 659 661 662 663 664 666 667 668 670 672 674 676 678 680 682 684 686 687 690 692 694 697 699 701 704 706 708 710 711 713 714 716 717 719
Wind_Speed
29 27 26 27 28 28 27 28 28 27 27 27 27 26 26 24 23 23 23 24 25 26 25 23 22 22 22 23 25 26 27 28 28 29 30 29 28 28 28 27 21 13 9 11 17 20 21 25 26 26 31 35 34 35 36 36 38 39 38 38 37 35 34
27 26 25 24 24 25 26 26 25 25 26 26 26 25 25 25 24 24 24 23 25 26 25 23 22 21 21 21 23 24 25 26 27 27 28 28 27 26 28 29 26 19 12 9 14 18 18 21 25 26 30 34 34 34 34 35 37 38 38 38 37 36 34
26 25 24 22 21 21 23 24 24 24 24 25 25 24 24 24 24 25 25 24 24 25 25 24 22 21 21 20 21 23 24 24 26 27 27 28 28 27 27 29 29 24 16 11 13 18 21 21 24 27 28 31 33 32 31 33 36 37 38 38 38 37 35
25 23 20 18 18 19 20 21 21 22 22 23 23 23 23 24 24 24 25 25 25 24 25 25 24 22 21 19 19 21 22 22 23 25 27 27 28 28 27 27 30 28 23 16 12 16 22 24 25 27 27 28 29 29 30 32 34 35 36 37 37 36 34
22 19 17 18 20 21 21 20 19 19 20 21 21 22 22 23 24 24 24 24 25 24 24 26 27 25 20 18 18 19 20 21 21 22 25 26 26 27 27 25 27 29 26 20 15 16 20 22 23 24 25 27 28 27 27 29 30 33 34 35 35 34 32
21 21 22 24 25 24 24 22 20 19 19 20 21 22 22 23 24 24 25 24 24 23 23 24 27 26 22 18 17 18 18 19 21 22 23 25 25 25 25 23 23 25 26 23 19 18 19 20 22 23 24 27 29 28 28 27 27 29 32 33 33 33 31
24 26 29 29 28 26 25 24 22 21 20 20 20 22 23 24 25 25 25 25 23 22 21 23 25 26 23 18 17 19 19 18 20 21 22 24 25 25 23 22 22 22 22 21 18 18 20 21 22 23 23 26 28 27 28 30 28 28 30 31 31 31 30
27 28 29 28 27 26 26 24 23 24 23 22 21 21 23 24 25 25 25 26 25 22 21 22 24 25 24 20 18 19 20 19 19 20 22 23 24 24 22 22 22 21 19 18 17 17 19 20 20 21 21 22 24 24 25 30 30 29 29 29 28 29 30
28 28 27 27 25 25 25 25 24 24 23 22 22 21 23 24 25 25 25 26 26 24 23 22 22 24 25 24 22 21 20 19 19 20 22 23 23 23 22 21 20 20 19 17 15 14 16 17 18 21 21 21 25 27 25 25 26 25 27 27 26 26 28
29 27 26 26 25 25 26 26 25 25 25 23 22 22 24 25 25 25 25 26 26 26 25 24 24 24 25 25 25 24 23 20 18 19 21 23 24 24 24 21 20 19 19 18 14 14 16 15 15 21 24 24 27 28 25 24 26 24 23 22 20 20 25
28 27 25 24 25 26 26 26 26 26 26 25 24 24 25 26 26 25 25 26 26 26 26 26 25 25 24 25 25 26 26 23 19 17 18 21 23 25 25 24 22 21 20 19 16 16 18 17 16 22 26 26 25 27 26 26 26 24 22 20 16 13 17
26 26 24 23 23 24 25 26 26 25 25 26 25 25 26 27 26 25 25 26 27 27 27 26 26 25 25 25 25 27 27 25 21 18 17 18 20 22 25 26 26 25 23 22 19 17 18 20 20 22 26 27 26 27 27 24 24 25 24 23 20 15 14
25 25 25 25 24 24 24 24 24 23 24 25 25 25 25 25 26 25 26 27 27 27 27 26 25 24 24 24 25 26 28 26 23 21 20 19 19 21 23 25 27 28 27 27 25 21 21 24 24 23 26 29 28 27 26 24 23 25 24 22 21 20 16
25 25 26 27 25 23 24 24 23 23 23 23 24 24 24 24 25 27 27 28 28 27 26 25 24 23 23 24 26 27 28 26 24 23 22 21 21 23 24 25 27 28 27 28 27 26 26 27 26 26 27 29 29 30 30 28 26 25 24 22 18 17 16
25 25 26 26 24 22 23 23 22 21 21 22 21 21 20 20 22 25 27 28 28 27 26 24 23 23 23 24 26 29 29 26 24 23 24 24 24 24 24 25 27 28 28 27 28 29 29 27 26 27 28 28 30 32 32 31 29 26 24 21 16 14 15
24 24 24 25 23 21 22 22 20 17 16 16 16 17 16 17 18 20 21 23 25 26 26 24 23 23 24 24 26 28 29 28 26 27 27 27 26 26 26 27 28 28 28 29 29 29 29 27 26 26 27 28 30 31 30 27 24 23 22 20 15 12 15
27 26 25 25 24 20 21 21 19 16 16 15 14 14 15 16 18 18 19 21 22 24 25 25 25 25 25 25 26 27 28 28 28 28 28 27 27 27 26 27 29 29 29 30 30 30 30 29 27 27 26 27 28 30 32 28 24 23 25 21 13 9 13
29 28 26 24 23 21 21 21 20 19 17 16 14 14 16 18 19 20 20 21 22 24 26 27 27 27 27 27 27 27 27 28 28 28 28 27 26 26 26 27 29 30 28 27 27 28 28 28 28 27 25 25 27 30 33 32 28 27 27 22 14 11 12
26 26 23 20 21 21 19 19 20 18 14 11 10 10 11 13 16 18 20 21 22 23 25 27 27 28 29 29 29 28 29 30 31 30 30 29 26 25 26 28 30 30 28 27 26 25 25 25 25 24 23 24 26 29 32 33 32 31 29 24 18 17 14
22 22 18 15 19 21 18 15 15 12 8 7 7 7 7 8 10 13 15 17 18 19 21 24 26 28 30 30 30 30 30 30 32 33 32 31 28 26 27 29 30 30 29 29 28 26 24 24 23 23 22 23 25 27 30 31 30 31 31 26 22 22 18
22 21 17 15 19 22 19 16 13 10 8 9 9 8 8 10 11 12 12 14 15 16 17 18 21 24 28 30 31 31 31 31 33 33 33 32 32 31 30 28 29 29 28 28 27 25 23 23 23 23 23 25 26 27 28 29 27 27 29 28 25 25 21
22 22 20 18 19 22 20 16 14 11 9 10 11 11 11 12 14 14 13 14 15 16 17 18 19 21 24 27 30 31 33 33 33 34 34 34 36 35 31 28 27 28 27 26 26 25 24 24 25 25 25 27 27 26 26 26 25 24 25 25 24 25 23
19 20 19 16 16 19 19 17 16 14 11 10 11 12 13 14 14 14 14 15 15 16 17 19 21 22 23 25 27 28 30 33 34 34 33 32 34 33 30 27 26 26 27 26 26 26 25 25 27 27 27 28 27 26 25 24 23 23 23 21 19 19 18
17 18 16 15 16 17 16 15 18 18 15 12 12 13 14 14 13 12 13 14 15 15 16 17 18 19 19 19 19 20 22 23 24 24 23 21 24 26 25 25 26 26 26 26 25 24 23 24 26 27 28 28 28 26 25 24 22 21 20 18 16 14 12
17 17 16 15 16 17 16 15 16 17 14 11 11 13 13 12 11 10 9 10 10 10 10 10 11 11 10 9 10 11 12 12 12 13 14 15 20 25 26 27 27 27 26 24 22 22 22 22 24 27 29 29 29 27 26 24 22 20 18 15 13 12 11
16 17 16 14 14 16 16 15 15 15 12 10 11 11 8 5 5 5 4 3 3 2 3 3 3 4 5 5 6 7 8 8 9 10 13 20 25 27 27 28 28 27 26 23 22 22 24 24 25 28 30 29 28 27 25 23 21 19 16 14 13 12 12
19 16 14 13 14 15 15 13 13 12 10 10 11 7 1 4 4 3 3 3 4 4 4 5 5 6 7 7 7 7 7 8 11 15 21 25 26 26 26 27 28 28 27 25 25 26 27 27 28 30 30 29 27 25 23 20 18 17 15 14 14 13 12
21 17 14 15 15 15 13 11 11 10 9 12 12 4 6 6 4 4 6 7 8 9 8 8 9 10 11 12 12 13 14 16 18 22 24 25 24 24 24 24 25 26 26 27 29 30 30 30 30 30 29 27 25 23 21 17 15 15 16 16 16 16 15
19 17 18 19 18 14 10 10 10 9 9 11 11 4 7 6 5 7 9 9 10 11 12 13 14 14 15 16 17 18 19 20 21 22 22 22 22 22 22 23 24 26 26 28 31 32 31 31 30 29 27 25 23 20 18 16 16 16 18 18 17 17 17
20 19 20 22 21 13 7 8 10 8 7 8 6 3 5 6 7 9 10 11 12 14 15 16 15 15 16 17 18 18 18 20 21 21 21 20 21 21 21 22 24 26 28 29 31 32 32 31 30 28 25 24 22 19 18 17 17 18 19 20 19 18 18
21 21 21 24 23 14 6 6 7 5 5 4 0 4 6 8 9 10 11 13 14 15 16 15 15 14 15 16 17 16 17 19 20 21 21 21 20 20 21 21 22 24 27 28 28 29 30 30 29 28 25 23 22 21 20 18 18 18 19 20 19 19 19
22 23 22 24 25 18 10 7 6 5 3 3 6 8 9 10 11 11 11 13 15 16 15 14 15 14 14 16 16 16 17 19 20 21 21 21 20 19 20 22 22 24 26 28 28 28 28 27 28 26 24 23 23 23 22 20 19 19 19 18 18 18 17
25 25 23 23 24 21 14 9 8 7 6 9 10 11 12 12 12 12 10 13 16 17 15 15 16 14 14 15 16 16 18 19 20 21 21 21 21 19 19 21 23 24 26 27 28 28 28 27 26 25 24 24 24 24 23 22 20 20 19 18 17 16 15
27 27 25 23 23 23 18 11 8 9 10 12 13 14 15 14 13 12 10 12 16 18 17 16 16 15 15 16 17 18 20 20 20 21 21 21 21 20 20 22 23 24 25 26 26 27 27 26 26 25 25 25 24 23 22 22 22 21 20 18 17 16 14
25 26 25 23 21 23 21 12 9 12 14 15 16 15 13 13 13 13 12 13 15 17 16 17 17 16 17 18 18 19 20 20 20 21 21 21 21 21 22 22 23 24 24 25 25 26 25 25 25 25 26 27 25 24 23 23 22 21 20 18 16 15 14
22 24 26 26 22 21 20 16 15 17 17 15 13 10 8 11 13 14 13 13 14 15 16 17 17 18 18 18 18 18 19 20 21 20 20 20 21 21 22 22 22 22 23 23 24 24 24 24 25 26 26 26 25 24 24 23 22 20 18 16 15 13 12
Wind_Direction
305 303 295 285 279 278 278 276 272 267 263 259 256 255 254 255 254 252 253 254 250 247 244 243 244 245 245 244 239 233 226 220 216 213 211 209 208 208 210 210 209 222 232 214 215 222 224 224 223 220 221 221 221 221 221 222 223 224 226 226 224 221 217
303 306 305 296 286 281 280 276 272 267 260 255 253 252 250 251 250 249 249 248 246 245 243 240 241 245 246 243 240 236 228 221 216 212 210 208 206 205 207 207 208 216 226 215 210 214 217 219 219 219 220 218 218 220 218 217 219 221 224 227 226 222 217
301 306 307 305 299 291 286 280 273 268 260 254 251 250 250 250 247 246 246 244 244 245 243 238 237 243 246 241 238 236 231 224 217 212 210 210 209 208 208 208 209 214 220 218 212 209 209 211 214 218 221 220 219 219 217 216 217 219 221 224 225 224 219
302 305 307 312 314 310 304 294 283 274 264 257 255 256 256 253 248 247 247 245 246 246 244 238 235 240 243 239 235 236 233 226 219 213 210 210 211 211 211 210 210 214 218 217 209 204 206 207 209 214 219 218 216 216 217 217 217 217 218 221 223 224 222
305 307 315 320 318 316 313 308 300 290 278 269 267 267 264 259 255 252 249 248 248 246 243 239 236 237 238 234 233 235 234 228 222 216 213 213 212 213 213 211 210 213 216 215 206 198 200 203 206 209 213 213 210 209 212 216 217 216 216 219 222 224 224
308 311 315 312 309 307 305 303 301 296 289 281 276 273 268 264 261 258 254 252 250 247 244 239 237 237 233 228 231 235 233 230 226 220 216 215 215 215 213 209 207 209 211 212 207 196 190 194 200 202 206 209 208 205 205 208 212 216 217 217 219 221 223
307 307 305 302 301 299 297 295 292 290 288 283 276 271 267 264 262 259 255 252 249 246 244 240 238 236 231 230 239 240 234 231 227 224 220 218 218 217 212 207 204 203 201 201 197 191 189 192 196 200 203 206 207 206 208 205 203 208 213 214 215 216 218
306 304 300 297 295 293 292 290 287 284 282 279 275 268 264 263 261 257 252 249 246 243 242 241 237 233 231 235 244 244 238 234 231 228 224 222 220 216 211 207 205 202 198 194 187 185 188 189 191 196 199 198 196 201 209 208 203 202 205 208 211 214 217
304 300 297 294 291 289 288 286 281 279 277 275 273 268 263 261 258 253 247 244 242 240 240 241 238 234 233 237 245 245 240 238 237 233 228 224 220 215 211 207 204 203 201 197 189 181 181 183 188 192 189 186 193 200 204 204 204 204 204 204 207 212 217
302 298 294 290 288 287 286 282 277 274 273 270 266 262 259 257 254 249 244 241 239 236 237 238 239 238 235 238 244 242 236 235 236 236 234 230 224 218 212 206 201 201 201 201 197 187 180 182 190 194 191 192 199 202 201 198 198 200 198 196 202 213 217
301 297 292 287 284 283 281 278 273 270 269 268 262 257 253 251 249 247 245 242 238 235 236 236 236 238 238 238 239 234 229 229 231 234 237 235 230 225 219 211 203 201 201 202 203 198 190 190 196 198 197 198 199 199 199 198 197 194 189 187 195 209 215
298 296 292 288 283 279 277 275 271 268 266 264 261 257 252 248 246 245 243 241 239 237 237 235 234 235 236 235 233 228 223 222 227 237 239 236 233 229 224 219 215 212 207 204 206 204 200 201 203 200 199 199 197 196 198 199 196 194 192 192 198 203 206
294 291 289 289 287 283 280 277 273 268 263 261 259 256 253 248 243 241 240 239 237 236 236 235 233 233 232 233 230 225 219 219 226 235 235 235 237 234 229 224 222 222 219 214 211 209 211 213 208 203 203 202 197 193 193 194 196 197 197 198 202 205 204
293 290 290 293 291 287 284 283 281 273 262 258 258 256 254 250 244 240 238 237 235 235 234 232 231 228 227 228 226 220 218 221 224 225 226 232 235 233 231 228 224 224 224 222 218 216 220 221 216 214 213 207 201 197 195 195 196 197 197 199 202 206 205
292 292 293 295 293 287 285 287 289 280 265 259 259 258 257 254 247 240 235 234 235 236 235 233 231 228 225 223 220 217 217 220 222 223 226 231 232 230 228 228 226 225 225 225 225 225 227 227 224 223 220 213 207 205 203 202 201 198 195 194 192 194 197
295 292 293 296 295 288 285 290 294 289 280 274 270 266 261 255 252 245 237 233 234 235 236 236 233 232 230 226 221 218 217 216 218 223 225 225 226 226 226 227 228 230 230 230 231 232 233 232 230 228 225 219 211 206 203 200 196 194 190 184 178 178 185
306 305 304 305 304 296 290 295 302 303 300 297 288 276 265 257 254 251 245 241 239 237 237 236 233 232 232 230 226 222 220 218 217 221 223 220 219 220 221 223 226 227 230 232 233 234 235 234 232 229 226 221 213 205 200 192 184 186 185 178 175 177 180
314 314 314 313 313 308 299 297 303 306 300 294 287 278 269 260 254 250 247 246 244 242 239 237 234 231 229 229 228 225 224 224 223 221 220 218 217 215 215 218 221 222 223 226 229 232 232 231 229 226 223 217 211 207 203 196 192 190 184 181 186 179 168
317 315 319 328 332 328 316 305 305 306 303 298 293 287 280 267 255 249 246 246 245 244 241 237 235 232 228 227 228 227 226 227 226 222 220 219 215 212 213 216 217 217 215 215 216 218 218 219 219 216 212 207 205 207 207 205 203 197 188 188 188 172 157
321 318 320 336 346 342 337 328 320 318 322 328 321 311 308 294 269 256 251 248 246 243 240 237 235 233 230 229 229 228 226 226 224 222 220 218 213 212 216 216 215 215 213 211 208 206 205 203 201 201 199 194 194 201 205 204 205 202 196 192 183 174 173
333 330 327 335 344 344 342 340 334 327 325 328 325 318 309 296 281 271 263 254 247 242 240 239 236 234 233 231 230 231 229 229 228 224 219 216 216 218 219 216 213 212 211 207 202 196 193 192 188 187 187 185 185 193 197 198 201 203 200 195 189 183 181
335 333 327 330 340 341 338 337 337 334 325 318 315 310 301 289 280 273 264 255 248 242 241 242 240 239 238 235 235 235 234 233 232 227 219 218 220 222 219 213 209 206 200 196 191 182 178 178 177 175 176 177 179 184 189 193 195 196 196 198 200 197 191
330 327 321 323 332 334 332 331 331 331 330 323 310 299 293 288 281 272 263 256 252 246 245 245 244 243 241 238 237 237 237 238 236 228 220 218 218 217 211 203 197 192 186 182 176 170 167 168 170 168 167 169 173 177 182 186 187 187 188 189 192 195 196
324 322 316 315 319 322 323 323 322 322 322 319 308 296 291 287 280 270 262 258 256 255 253 251 248 246 242 237 233 233 234 233 227 221 220 217 208 199 190 182 179 176 173 168 164 162 160 161 164 164 162 164 167 170 174 176 175 175 177 177 178 184 190
320 319 311 307 310 312 310 310 317 320 317 312 309 300 292 286 276 264 255 252 254 258 258 257 254 249 239 228 223 221 217 210 205 212 220 204 180 169 167 168 168 166 163 161 158 157 154 153 157 161 161 162 163 164 166 167 164 163 167 171 176 180 184
315 312 305 301 307 312 308 305 314 321 320 324 326 315 297 275 251 236 229 234 248 254 246 236 221 204 190 189 192 191 191 194 197 197 185 169 160 160 163 165 164 162 161 158 153 150 148 150 156 158 158 159 159 160 162 163 163 164 166 173 179 178 179
314 307 306 311 315 316 316 317 322 324 324 335 340 330 215 160 164 174 154 130 120 120 125 129 135 141 140 139 145 154 162 166 159 152 149 150 155 160 163 165 166 165 162 156 151 149 150 152 155 154 154 155 157 159 161 165 169 170 169 174 178 171 167
312 310 320 327 322 317 320 327 333 334 329 331 334 314 174 161 151 145 132 123 124 124 124 127 126 123 122 122 123 124 126 129 132 135 138 143 149 152 155 158 161 159 155 154 154 152 151 151 152 151 152 156 158 160 162 167 174 175 171 170 169 161 155
320 327 338 337 328 320 316 320 331 337 327 324 322 269 187 159 137 136 128 123 130 132 125 120 116 113 113 115 113 111 113 115 118 121 127 134 139 142 146 152 154 152 152 155 156 153 151 150 150 151 154 157 158 160 164 169 173 173 168 167 167 163 160
340 346 348 344 339 337 321 312 323 329 328 332 324 232 181 139 128 131 126 127 136 132 120 113 107 104 107 111 110 109 111 115 116 117 119 125 133 139 144 149 153 155 156 157 156 154 153 152 152 153 156 158 158 159 163 167 170 171 169 168 166 161 160
353 355 354 351 350 355 354 335 339 344 343 349 136 165 144 126 125 121 124 138 139 123 111 108 104 101 106 111 113 114 117 120 122 122 123 126 131 139 146 149 152 155 155 155 154 153 153 155 156 156 157 160 160 160 160 163 167 169 172 173 170 164 161
1 0 359 357 357 5 22 30 19 17 34 104 138 138 126 123 122 114 122 142 136 115 104 107 107 106 112 116 117 119 123 126 128 129 132 133 132 136 147 153 155 158 158 157 156 155 155 157 158 158 160 162 163 161 160 161 166 168 169 170 168 164 162
11 5 1 360 2 10 28 46 39 44 91 123 129 125 119 114 111 114 130 145 133 115 109 113 113 114 119 122 122 126 127 129 132 134 136 139 138 140 148 154 157 160 160 159 160 160 159 160 161 162 162 162 164 164 163 163 165 166 166 164 161 160 161
11 10 5 3 7 13 21 34 52 76 109 123 116 112 115 111 104 110 130 140 131 121 119 121 120 121 126 128 130 133 134 134 137 139 141 143 144 148 152 155 158 161 161 161 162 162 162 163 165 165 163 162 163 164 165 165 165 165 165 165 163 162 164
359 6 7 9 15 20 21 34 85 103 107 112 112 113 121 118 107 102 109 120 123 124 126 129 129 130 134 135 136 139 140 141 143 146 148 149 150 152 154 156 158 161 162 163 164 164 165 166 167 167 167 166 166 165 165 166 167 169 169 169 168 169 170
353 1 8 14 23 30 33 52 90 100 94 98 109 118 121 114 105 102 105 111 119 125 129 133 136 138 139 140 141 143 145 147 148 151 154 155 156 156 157 158 160 162 164 165 166 166 168 168 168 169 169 168 168 170 171 170 170 171 172 172 172 175 178